Вернуться в каталог

COSMOS 1867 COOLANT

АктивенLEO
NORAD 39645·DEBRIS·🇷🇺 Russia

Запущен Jul 10, 1987 с Baikonur Cosmodrome

Loading…

Ближайшие Пролёты (ближайшие 24 часа)

TLE

СвежийSource: Space-Track

Эпоха: Sep 14, 2026, 05:33 UTC

1 39645U 87060N   26257.23127834  .00000126  00000-0  81212-4 0  9997
2 39645  65.0098 122.4974 0019015 279.9701  79.9239 14.33871214650326

Отслеживайте COSMOS 1867 COOLANT в реальном времени с AllMySat

Download on the App Store